When you browse on this site, cookies collect data to enhance your experience and personalize the content and advertising you see.
Visit our Privacy Policy to learn more. By continuing to use the site, you agree to this use of cookies and data.

Meteo pe oră la Solden

Astăzi, 5 August, Miercuri

Timp Temperatura Precipitaţii Vânt Presiune Umiditate
00:00 +1°C° 0 mm 2 m/s 581 mmHg 83%
01:00 +1°C° 0 mm 2 m/s 581 mmHg 83%
02:00 -1°C° 0 mm 2 m/s 581 mmHg 82%
03:00 -1°C° 0 mm 2 m/s 581 mmHg 82%
04:00 -1°C° 0 mm 2 m/s 581 mmHg 81%
05:00 +2°C° 0 mm 2 m/s 582 mmHg 78%
06:00 +3°C° 0 mm 2 m/s 582 mmHg 75%
07:00 +5°C° 0 mm 1 m/s 583 mmHg 72%
08:00 +7°C° 0 mm 1 m/s 584 mmHg 66%
09:00 +10°C° 0 mm 1 m/s 585 mmHg 60%
10:00 +12°C° 0 mm 1 m/s 586 mmHg 54%
11:00 +13°C° 0 mm 1 m/s 587 mmHg 51%
12:00 +15°C° 0 mm 1 m/s 587 mmHg 48%
13:00 +16°C° 0 mm 1 m/s 587 mmHg 45%
14:00 +16°C° 0 mm 1 m/s 587 mmHg 46%
15:00 +16°C° 0 mm 1 m/s 587 mmHg 46%
16:00 +16°C° 0 mm 1 m/s 587 mmHg 47%
17:00 +14°C° 0 mm 1 m/s 587 mmHg 57%
18:00 +12°C° 0 mm 1 m/s 586 mmHg 67%
19:00 +11°C° 0 mm 1 m/s 585 mmHg 77%
20:00 +9°C° 0 mm 1 m/s 585 mmHg 80%
21:00 +8°C° 0 mm 1 m/s 585 mmHg 82%
22:00 +6°C° 0 mm 1 m/s 585 mmHg 85%
23:00 +6°C° 0 mm 1 m/s 584 mmHg 85%

Mâine, 6 August, Joi

Timp Temperatura Precipitaţii Vânt Presiune Umiditate
00:00 +6°C° 0 mm 1 m/s 584 mmHg 86%
01:00 +5°C° 0 mm 1 m/s 584 mmHg 87%
02:00 +5°C° 0 mm 1 m/s 584 mmHg 86%
03:00 +5°C° 0 mm 1 m/s 584 mmHg 85%
04:00 +5°C° 0 mm 1 m/s 584 mmHg 85%
05:00 +7°C° 0 mm 1 m/s 585 mmHg 80%
06:00 +7°C° 0 mm 0 m/s 586 mmHg 75%
07:00 +9°C° 0 mm 0 m/s 586 mmHg 71%
08:00 +11°C° 0 mm 0 m/s 588 mmHg 64%
09:00 +14°C° 0 mm 1 m/s 589 mmHg 58%
10:00 +16°C° 0 mm 1 m/s 590 mmHg 51%
11:00 +18°C° 0 mm 1 m/s 590 mmHg 49%
12:00 +19°C° 0 mm 1 m/s 590 mmHg 47%
13:00 +20°C° 0 mm 1 m/s 590 mmHg 44%
14:00 +20°C° 0.1 mm 1 m/s 590 mmHg 47%
15:00 +19°C° 0.1 mm 1 m/s 590 mmHg 49%
16:00 +19°C° 0.1 mm 1 m/s 590 mmHg 52%
17:00 +16°C° 0.4 mm 1 m/s 589 mmHg 63%
18:00 +14°C° 0.4 mm 1 m/s 589 mmHg 74%
19:00 +13°C° 0.4 mm 1 m/s 588 mmHg 84%
20:00 +11°C° 0.1 mm 1 m/s 588 mmHg 87%
21:00 +9°C° 0.1 mm 0 m/s 588 mmHg 89%
22:00 +8°C° 0.1 mm 0 m/s 587 mmHg 92%
23:00 +7°C° 0 mm 0 m/s 587 mmHg 92%

Poimâine, 7 August, Vineri

Timp Temperatura Precipitaţii Vânt Presiune Umiditate
00:00 +7°C° 0 mm 0 m/s 587 mmHg 93%
01:00 +7°C° 0 mm 0 m/s 587 mmHg 93%
02:00 +6°C° 0 mm 0 m/s 587 mmHg 93%
03:00 +6°C° 0 mm 0 m/s 586 mmHg 93%
04:00 +6°C° 0 mm 0 m/s 586 mmHg 93%
05:00 +7°C° 0 mm 0 m/s 587 mmHg 90%
06:00 +9°C° 0 mm 0 m/s 588 mmHg 87%
07:00 +10°C° 0 mm 0 m/s 589 mmHg 84%
08:00 +12°C° 0 mm 0 m/s 590 mmHg 77%
09:00 +15°C° 0 mm 1 m/s 590 mmHg 70%
10:00 +18°C° 0 mm 1 m/s 591 mmHg 63%
11:00 +18°C° 0.2 mm 1 m/s 591 mmHg 61%
12:00 +19°C° 0.2 mm 1 m/s 592 mmHg 59%
13:00 +18°C° 0.2 mm 2 m/s 592 mmHg 57%
14:00 +18°C° 0.3 mm 2 m/s 591 mmHg 61%
15:00 +18°C° 0.3 mm 2 m/s 591 mmHg 64%
16:00 +17°C° 0.3 mm 2 m/s 591 mmHg 67%
17:00 +16°C° 0.6 mm 2 m/s 590 mmHg 75%
18:00 +14°C° 0.6 mm 1 m/s 590 mmHg 83%
19:00 +13°C° 0.6 mm 1 m/s 589 mmHg 91%
20:00 +12°C° 0.3 mm 1 m/s 589 mmHg 93%
21:00 +10°C° 0.3 mm 0 m/s 588 mmHg 94%
22:00 +8°C° 0.3 mm 0 m/s 588 mmHg 96%
23:00 +8°C° 0 mm 0 m/s 588 mmHg 96%

8 August, Sâmbătă

Timp Temperatura Precipitaţii Vânt Presiune Umiditate
00:00 +8°C° 0 mm 0 m/s 588 mmHg 96%
01:00 +8°C° 0 mm 0 m/s 588 mmHg 96%
02:00 +8°C° 0 mm 0 m/s 587 mmHg 96%
03:00 +7°C° 0 mm 0 m/s 587 mmHg 96%
04:00 +7°C° 0 mm 0 m/s 587 mmHg 95%
05:00 +8°C° 0 mm 0 m/s 587 mmHg 93%
06:00 +9°C° 0 mm 0 m/s 588 mmHg 91%
07:00 +10°C° 0 mm 0 m/s 588 mmHg 89%
08:00 +12°C° 0 mm 0 m/s 589 mmHg 79%
09:00 +15°C° 0 mm 1 m/s 590 mmHg 68%
10:00 +18°C° 0 mm 1 m/s 591 mmHg 58%
11:00 +19°C° 0.1 mm 1 m/s 591 mmHg 54%
12:00 +20°C° 0.1 mm 1 m/s 591 mmHg 50%
13:00 +21°C° 0.1 mm 1 m/s 591 mmHg 46%
14:00 +21°C° 0.2 mm 1 m/s 591 mmHg 47%
15:00 +20°C° 0.2 mm 2 m/s 591 mmHg 48%
16:00 +20°C° 0.2 mm 2 m/s 590 mmHg 48%
17:00 +19°C° 0.3 mm 1 m/s 590 mmHg 59%
18:00 +16°C° 0.3 mm 1 m/s 589 mmHg 70%
19:00 +14°C° 0.3 mm 1 m/s 588 mmHg 81%
20:00 +13°C° 0.2 mm 1 m/s 588 mmHg 83%
21:00 +11°C° 0.2 mm 1 m/s 587 mmHg 86%
22:00 +10°C° 0.2 mm 1 m/s 587 mmHg 88%
23:00 +9°C° 0.1 mm 1 m/s 587 mmHg 88%

9 August, Duminică

Timp Temperatura Precipitaţii Vânt Presiune Umiditate
00:00 +9°C° 0.1 mm 1 m/s 586 mmHg 89%
01:00 +9°C° 0.1 mm 1 m/s 586 mmHg 90%
02:00 +8°C° 0 mm 1 m/s 586 mmHg 89%
03:00 +8°C° 0 mm 1 m/s 585 mmHg 89%
04:00 +8°C° 0 mm 1 m/s 585 mmHg 89%
05:00 +9°C° 0 mm 1 m/s 586 mmHg 84%
06:00 +10°C° 0 mm 1 m/s 586 mmHg 80%
07:00 +12°C° 0 mm 1 m/s 587 mmHg 76%
08:00 +14°C° 0 mm 1 m/s 588 mmHg 67%
09:00 +16°C° 0 mm 1 m/s 589 mmHg 58%
10:00 +19°C° 0 mm 1 m/s 590 mmHg 49%
11:00 +20°C° 0 mm 1 m/s 590 mmHg 47%
12:00 +20°C° 0 mm 1 m/s 590 mmHg 45%
13:00 +21°C° 0 mm 1 m/s 590 mmHg 43%
14:00 +21°C° 0.2 mm 1 m/s 589 mmHg 46%
15:00 +19°C° 0.2 mm 2 m/s 589 mmHg 49%
16:00 +19°C° 0.2 mm 2 m/s 589 mmHg 53%
17:00 +18°C° 0.7 mm 1 m/s 588 mmHg 63%
18:00 +15°C° 0.7 mm 1 m/s 587 mmHg 74%
19:00 +13°C° 0.7 mm 1 m/s 586 mmHg 84%
20:00 +12°C° 0.6 mm 1 m/s 586 mmHg 85%
21:00 +11°C° 0.6 mm 1 m/s 585 mmHg 87%
22:00 +10°C° 0.6 mm 1 m/s 585 mmHg 88%
23:00 +10°C° 0.5 mm 1 m/s 585 mmHg 88%

10 August, Luni

Timp Temperatura Precipitaţii Vânt Presiune Umiditate
00:00 +9°C° 0.5 mm 1 m/s 584 mmHg 88%
01:00 +8°C° 0.5 mm 0 m/s 584 mmHg 89%
02:00 +7°C° 0.1 mm 0 m/s 584 mmHg 89%
03:00 +8°C° 0.1 mm 1 m/s 583 mmHg 89%
04:00 +8°C° 0.1 mm 1 m/s 583 mmHg 89%
05:00 +8°C° 0 mm 0 m/s 584 mmHg 87%
06:00 +9°C° 0 mm 0 m/s 585 mmHg 84%
07:00 +11°C° 0 mm 0 m/s 585 mmHg 81%
08:00 +12°C° 0.1 mm 0 m/s 586 mmHg 75%
09:00 +15°C° 0.1 mm 1 m/s 587 mmHg 69%
10:00 +18°C° 0.1 mm 1 m/s 587 mmHg 63%
11:00 +18°C° 0.5 mm 1 m/s 587 mmHg 62%
12:00 +19°C° 0.5 mm 1 m/s 588 mmHg 61%
13:00 +18°C° 0.5 mm 2 m/s 588 mmHg 60%
14:00 +17°C° 1.1 mm 2 m/s 587 mmHg 63%
15:00 +17°C° 1.1 mm 2 m/s 587 mmHg 66%
16:00 +17°C° 1.1 mm 2 m/s 587 mmHg 68%
17:00 +15°C° 0.8 mm 1 m/s 586 mmHg 74%
18:00 +14°C° 0.8 mm 1 m/s 586 mmHg 80%
19:00 +12°C° 0.8 mm 0 m/s 585 mmHg 86%
20:00 +10°C° 0.2 mm 0 m/s 585 mmHg 86%
21:00 +10°C° 0.2 mm 1 m/s 585 mmHg 87%
22:00 +9°C° 0.2 mm 1 m/s 584 mmHg 87%
23:00 +9°C° 0 mm 1 m/s 584 mmHg 87%
Arată mai mult